Tracking 27126 objects as of 30-Mar-2023
HD Live streaming from Space Station
objects crossing your sky now

SL-12 R/B(2)

Track SL-12 R/B(2) now!


NORAD ID: 28240
Int'l Code: 2004-015D
Perigee: 35,602.4 km
Apogee: 35,734.0 km
Inclination: 12.3 °
Period: 1,429.7 minutes
Semi major axis: 42039 km
RCS: 1.2715 m2 (large)
Launch date: April 26, 2004
Source: Commonwealth of Independent States (former USSR) (CIS)
Launch site: TYURATAM MISSILE AND SPACE COMPLEX (TTMTR)

Note: This is a ROCKET BODY
Your satellite tracking list
Your tracking list is empty




NASA's NSSDC Master Catalog

Two Line Element Set (TLE):
1 28240U 04015D   23088.39274101 -.00000247  00000-0  00000-0 0  9998
2 28240  12.3039  22.6321 0015654 313.8566 260.7851  1.00721170 69569
Source of the keplerian elements: AFSPC